Location: Vlissingen
(51.4500°N, 3.5830°E)
Time: 13:39:25
(UTC+01:00)

N. Korean satellite - Pass Details

Date: 30 November 2021
Orbit: 447 x 490 km, 97.3° (Epoch: 27 January)

Event Time Altitude Azimuth Distance (km) Brightness Sun altitude
Rises 07:42:06 0° 355° (N) 2,488 9.9 -6.9°
Reaches altitude 10° 07:45:37 10° 316° (NW) 1,597 8.6 -6.4°
Maximum altitude 07:46:26 11° 302° (WNW) 1,551 8.4 -6.3°
Drops below altitude 10° 07:47:15 10° 288° (WNW) 1,590 8.5 -6.2°
Sets 07:50:44 0° 249° (WSW) 2,449 9.7 -5.7°
